When you browse on this site, cookies collect data to enhance your experience and personalize the content and advertising you see.
Visit our Privacy Policy to learn more. By continuing to use the site, you agree to this use of cookies and data.
  • în România
  • Lista ţărilor
  • Pe 7 zile
  • Temperatura apei
  • Hartă satelitară
  • Meteo pe hartă
  • Widget-uri
  • user-avatar
    Intrare

    Meteo pe oră la Klokovo

    Astăzi, 23 Ianuarie, Miercuri

    Timp Temperatura Precipitaţii Vânt Presiune Umiditate
    00:00 -21°C° 0 mm 2 m/s 749 mmHg 97%
    01:00 -23°C° 0 mm 2 m/s 749 mmHg 97%
    02:00 -23°C° 0 mm 2 m/s 749 mmHg 97%
    03:00 -23°C° 0 mm 2 m/s 749 mmHg 96%
    04:00 -23°C° 0 mm 2 m/s 749 mmHg 96%
    05:00 -24°C° 0 mm 2 m/s 749 mmHg 95%
    06:00 -24°C° 0 mm 2 m/s 749 mmHg 95%
    07:00 -24°C° 0 mm 2 m/s 749 mmHg 95%
    08:00 -24°C° 0 mm 2 m/s 749 mmHg 95%
    09:00 -23°C° 0 mm 2 m/s 749 mmHg 94%
    10:00 -20°C° 0 mm 2 m/s 749 mmHg 93%
    11:00 -18°C° 0 mm 2 m/s 750 mmHg 92%
    12:00 -18°C° 0 mm 2 m/s 749 mmHg 93%
    13:00 -17°C° 0 mm 2 m/s 749 mmHg 94%
    14:00 -16°C° 0 mm 2 m/s 749 mmHg 94%
    15:00 -16°C° 0 mm 2 m/s 749 mmHg 95%
    16:00 -16°C° 0 mm 2 m/s 748 mmHg 96%
    17:00 -16°C° 0 mm 2 m/s 748 mmHg 96%
    18:00 -15°C° 0 mm 2 m/s 748 mmHg 96%
    19:00 -16°C° 0 mm 3 m/s 748 mmHg 96%
    20:00 -15°C° 0 mm 3 m/s 748 mmHg 95%
    21:00 -15°C° 0 mm 3 m/s 748 mmHg 95%
    22:00 -15°C° 0 mm 3 m/s 748 mmHg 95%
    23:00 -16°C° 0 mm 3 m/s 748 mmHg 95%

    Mâine, 24 Ianuarie, Joi

    Timp Temperatura Precipitaţii Vânt Presiune Umiditate
    00:00 -16°C° 0 mm 3 m/s 748 mmHg 95%
    01:00 -16°C° 0 mm 2 m/s 748 mmHg 95%
    02:00 -16°C° 0 mm 2 m/s 748 mmHg 96%
    03:00 -17°C° 0 mm 2 m/s 748 mmHg 96%
    04:00 -17°C° 0 mm 2 m/s 747 mmHg 97%
    05:00 -18°C° 0 mm 2 m/s 747 mmHg 97%
    06:00 -18°C° 0 mm 2 m/s 747 mmHg 98%
    07:00 -18°C° 0 mm 2 m/s 747 mmHg 98%
    08:00 -19°C° 0 mm 2 m/s 747 mmHg 98%
    09:00 -17°C° 0 mm 2 m/s 747 mmHg 96%
    10:00 -16°C° 0 mm 2 m/s 747 mmHg 94%
    11:00 -15°C° 0 mm 2 m/s 747 mmHg 92%
    12:00 -14°C° 0 mm 2 m/s 747 mmHg 92%
    13:00 -13°C° 0 mm 2 m/s 747 mmHg 92%
    14:00 -12°C° 0 mm 2 m/s 747 mmHg 91%
    15:00 -13°C° 0 mm 2 m/s 747 mmHg 93%
    16:00 -12°C° 0 mm 1 m/s 748 mmHg 94%
    17:00 -12°C° 0 mm 1 m/s 748 mmHg 95%
    18:00 -12°C° 0 mm 1 m/s 748 mmHg 96%
    19:00 -12°C° 0 mm 1 m/s 749 mmHg 96%
    20:00 -13°C° 0 mm 1 m/s 749 mmHg 97%
    21:00 -13°C° 0 mm 1 m/s 749 mmHg 97%
    22:00 -13°C° 0 mm 1 m/s 750 mmHg 98%
    23:00 -14°C° 0 mm 1 m/s 751 mmHg 98%

    Poimâine, 25 Ianuarie, Vineri

    Timp Temperatura Precipitaţii Vânt Presiune Umiditate
    00:00 -14°C° 0 mm 1 m/s 751 mmHg 98%
    01:00 -15°C° 0 mm 1 m/s 751 mmHg 98%
    02:00 -17°C° 0 mm 2 m/s 752 mmHg 98%
    03:00 -16°C° 0 mm 1 m/s 752 mmHg 99%
    04:00 -18°C° 0 mm 1 m/s 752 mmHg 99%
    05:00 -19°C° 0 mm 1 m/s 753 mmHg 99%
    06:00 -19°C° 0 mm 1 m/s 753 mmHg 99%
    07:00 -20°C° 0 mm 1 m/s 754 mmHg 98%
    08:00 -21°C° 0 mm 1 m/s 754 mmHg 98%
    09:00 -19°C° 0 mm 1 m/s 755 mmHg 95%
    10:00 -18°C° 0 mm 1 m/s 755 mmHg 93%
    11:00 -16°C° 0 mm 1 m/s 755 mmHg 90%
    12:00 -15°C° 0 mm 1 m/s 756 mmHg 90%
    13:00 -15°C° 0 mm 1 m/s 756 mmHg 91%
    14:00 -14°C° 0 mm 1 m/s 756 mmHg 92%
    15:00 -16°C° 0 mm 1 m/s 756 mmHg 93%
    16:00 -17°C° 0 mm 1 m/s 756 mmHg 94%
    17:00 -18°C° 0 mm 1 m/s 756 mmHg 95%
    18:00 -19°C° 0 mm 1 m/s 757 mmHg 96%
    19:00 -19°C° 0 mm 1 m/s 757 mmHg 96%
    20:00 -20°C° 0 mm 1 m/s 757 mmHg 97%
    21:00 -20°C° 0 mm 1 m/s 757 mmHg 97%
    22:00 -20°C° 0 mm 1 m/s 757 mmHg 97%
    23:00 -20°C° 0 mm 1 m/s 758 mmHg 97%

    26 Ianuarie, Sâmbătă

    Timp Temperatura Precipitaţii Vânt Presiune Umiditate
    00:00 -20°C° 0 mm 1 m/s 758 mmHg 97%
    01:00 -21°C° 0 mm 1 m/s 758 mmHg 97%
    02:00 -21°C° 0 mm 1 m/s 758 mmHg 97%
    03:00 -21°C° 0 mm 1 m/s 757 mmHg 97%
    04:00 -21°C° 0 mm 1 m/s 757 mmHg 97%
    05:00 -21°C° 0 mm 1 m/s 757 mmHg 97%
    06:00 -21°C° 0 mm 1 m/s 757 mmHg 97%
    07:00 -22°C° 0 mm 1 m/s 757 mmHg 97%
    08:00 -22°C° 0 mm 1 m/s 757 mmHg 97%
    09:00 -20°C° 0 mm 1 m/s 758 mmHg 96%
    10:00 -19°C° 0 mm 1 m/s 758 mmHg 94%
    11:00 -17°C° 0 mm 1 m/s 758 mmHg 92%
    12:00 -17°C° 0 mm 1 m/s 757 mmHg 93%
    13:00 -16°C° 0 mm 1 m/s 757 mmHg 93%
    14:00 -16°C° 0 mm 1 m/s 757 mmHg 93%
    15:00 -17°C° 0 mm 1 m/s 757 mmHg 95%
    16:00 -19°C° 0 mm 1 m/s 757 mmHg 97%
    17:00 -20°C° 0 mm 1 m/s 757 mmHg 98%
    18:00 -21°C° 0 mm 1 m/s 757 mmHg 98%
    19:00 -21°C° 0 mm 1 m/s 757 mmHg 98%
    20:00 -22°C° 0 mm 1 m/s 757 mmHg 98%
    21:00 -22°C° 0 mm 1 m/s 757 mmHg 97%
    22:00 -22°C° 0 mm 1 m/s 757 mmHg 97%
    23:00 -23°C° 0 mm 1 m/s 757 mmHg 96%

    27 Ianuarie, Duminică

    Timp Temperatura Precipitaţii Vânt Presiune Umiditate
    00:00 -23°C° 0 mm 1 m/s 757 mmHg 95%
    01:00 -23°C° 0 mm 1 m/s 757 mmHg 95%
    02:00 -24°C° 0 mm 1 m/s 757 mmHg 94%
    03:00 -24°C° 0 mm 1 m/s 757 mmHg 93%
    04:00 -24°C° 0 mm 1 m/s 757 mmHg 93%
    05:00 -24°C° 0 mm 1 m/s 757 mmHg 92%
    06:00 -24°C° 0 mm 1 m/s 757 mmHg 92%
    07:00 -25°C° 0 mm 1 m/s 757 mmHg 92%
    08:00 -25°C° 0 mm 1 m/s 758 mmHg 92%
    09:00 -23°C° 0 mm 0 m/s 758 mmHg 91%
    10:00 -21°C° 0 mm 0 m/s 758 mmHg 89%
    11:00 -19°C° 0 mm 0 m/s 758 mmHg 87%
    12:00 -19°C° 0 mm 0 m/s 758 mmHg 88%
    13:00 -18°C° 0 mm 0 m/s 758 mmHg 89%
    14:00 -18°C° 0 mm 0 m/s 758 mmHg 89%
    15:00 -19°C° 0 mm 0 m/s 758 mmHg 92%
    16:00 -21°C° 0 mm 0 m/s 758 mmHg 94%
    17:00 -22°C° 0 mm 1 m/s 758 mmHg 96%
    18:00 -23°C° 0 mm 1 m/s 758 mmHg 97%
    19:00 -23°C° 0 mm 1 m/s 758 mmHg 98%
    20:00 -23°C° 0 mm 1 m/s 758 mmHg 98%
    21:00 -24°C° 0 mm 1 m/s 758 mmHg 99%
    22:00 -24°C° 0 mm 1 m/s 758 mmHg 99%
    23:00 -24°C° 0 mm 1 m/s 759 mmHg 99%

    28 Ianuarie, Luni

    Timp Temperatura Precipitaţii Vânt Presiune Umiditate
    00:00 -24°C° 0 mm 1 m/s 759 mmHg 99%
    01:00 -25°C° 0 mm 1 m/s 759 mmHg 99%
    02:00 -25°C° 0 mm 1 m/s 759 mmHg 99%
    03:00 -25°C° 0 mm 1 m/s 759 mmHg 99%
    04:00 -25°C° 0 mm 1 m/s 759 mmHg 99%
    05:00 -27°C° 0 mm 1 m/s 759 mmHg 99%
    06:00 -27°C° 0 mm 1 m/s 759 mmHg 99%
    07:00 -27°C° 0 mm 1 m/s 759 mmHg 99%
    08:00 -27°C° 0 mm 1 m/s 759 mmHg 99%
    09:00 -24°C° 0 mm 1 m/s 759 mmHg 98%
    10:00 -22°C° 0 mm 1 m/s 759 mmHg 96%
    11:00 -21°C° 0 mm 1 m/s 759 mmHg 95%
    12:00 -20°C° 0 mm 1 m/s 759 mmHg 94%
    13:00 -21°C° 0 mm 2 m/s 759 mmHg 93%
    14:00 -20°C° 0 mm 2 m/s 759 mmHg 93%
    15:00 -21°C° 0 mm 2 m/s 759 mmHg 93%
    16:00 -23°C° 0 mm 2 m/s 759 mmHg 94%
    17:00 -23°C° 0 mm 2 m/s 758 mmHg 95%
    18:00 -23°C° 0 mm 2 m/s 758 mmHg 94%
    19:00 -23°C° 0 mm 2 m/s 758 mmHg 93%
    20:00 -23°C° 0 mm 2 m/s 758 mmHg 92%
    21:00 -21°C° 0 mm 2 m/s 758 mmHg 90%
    22:00 -23°C° 0 mm 3 m/s 757 mmHg 89%
    23:00 -23°C° 0 mm 3 m/s 757 mmHg 88%
    Arată mai mult